User: anonymous   Login
Location: Caltech
(34.1382°N, 118.1253°W)
Time: 19:26:38
(UTC-07:00)
Language:

CZ-2C R/B - Orbit

View from above orbital plane
View from above orbital plane
View from above satellite
View from above satellite

Ground track
Ground track

The orbit data is extracted from the following two-line orbital elements,

1 36089U 09061B   17146.64044531 +.00000044 +00000-0 +21896-4 0  9996
2 36089 098.0517 149.3963 0083351 111.7154 004.1596 14.49661263398493
Epoch (UTC): 26 May 2017 15:22:14
Eccentricity: 0.0083351
inclination: 98.0517°
perigee height: 667 km
apogee height: 786 km
right ascension of ascending node: 149.3963°
argument of perigee: 111.7154°
revolutions per day: 14.49661263
mean anomaly at epoch: 4.1596°
orbit number at epoch: 39849

The dashed part of the orbit path shows where the satellite is in the earth's shadow,  

DLR